Left ArrowRight Arrow

39.01783, -85.05884

Hourly Observations for June 19, 2024

Temp ( °F °C ) Dew Point ( °F °C ) Humidity (%) Winds ( mph kmh ) Pressure ( in mb ) Visibility ( mi km ) Precip ( " mm )
12:52 am 00:52 Mostly Clear 79 26.1 72 22.2 79 79 S 5 7 30.13 1020 10 16 0.00 0.00
1:52 am 01:52 Mostly Clear 79 26.1 72 22.2 79 79 Calm 30.14 1021 10 16 0.00 0.00
2:52 am 02:52 Mostly Cloudy 78 25.6 72 22.2 82 82 SE 5 7 30.13 1020 10 16 0.00 0.00
3:52 am 03:52 Mostly Cloudy 79 26.1 73 22.8 82 82 SSE 7 11 30.13 1020 10 16 0.00 0.00
4:52 am 04:52 Mostly Cloudy 78 25.6 73 22.8 85 85 S 5 7 30.15 1021 10 16 0.00 0.00
5:52 am 05:52 Cloudy 76 24.4 73 22.8 91 91 SSE 5 7 30.17 1022 10 16 0.00 0.00
6:52 am 06:52 Mostly Cloudy 76 24.4 72 22.2 88 88 S 5 7 30.19 1022 10 16 0.00 0.00
7:52 am 07:52 Cloudy 78 25.6 72 22.2 82 82 S 6 9 30.21 1023 10 16 0.00 0.00
8:52 am 08:52 Mostly Cloudy 79 26.1 71 21.7 77 77 S 8 13 30.22 1024 10 16 0.00 0.00
9:52 am 09:52 Cloudy 81 27.2 72 22.2 74 74 S 7 11 30.24 1024 10 16 0.00 0.00
10:52 am 10:52 Cloudy 81 27.2 73 22.8 77 77 SW 7 11 30.24 1024 8 13 0.00 0.00
11:52 am 11:52 Cloudy 83 28.3 74 23.3 74 74 SSW 5 7 30.24 1024 10 16 0.00 0.00
12:52 pm 12:52 Cloudy 86 30 74 23.3 67 67 SSW 5 7 30.24 1024 10 16 0.00 0.00
1:52 pm 13:52 Cloudy 86 30 74 23.3 67 67 W 3 6 30.23 1024 8 13 0.00 0.00
2:52 pm 14:52 Cloudy 87 30.6 73 22.8 63 63 SW 5 7 30.22 1023 10 16 0.00 0.00
3:52 pm 15:52 Cloudy 87 30.6 74 23.3 65 65 WSW 7 11 30.21 1023 10 16 0.00 0.00
4:52 pm 16:52 Cloudy 89 31.7 73 22.8 59 59 VRB 3 6 30.21 1023 10 16 0.00 0.00
5:52 pm 17:52 Mostly Cloudy 86 30 73 22.8 65 65 W 8 13 30.21 1023 10 16 0.00 0.00
6:52 pm 18:52 Mostly Cloudy 86 30 71 21.7 61 61 W 8 13 30.20 1023 10 16 0.00 0.00
7:52 pm 19:52 Mostly Cloudy 85 29.4 71 21.7 63 63 WNW 6 9 30.19 1023 10 16 0.00 0.00
8:52 pm 20:52 Mostly Cloudy 83 28.3 71 21.7 67 67 W 3 6 30.21 1023 10 16 0.00 0.00
9:52 pm 21:52 Cloudy 82 27.8 70 21.1 67 67 Calm 30.22 1023 10 16 0.00 0.00
10:52 pm 22:52 Mostly Cloudy 79 26.1 72 22.2 79 79 S 5 7 30.24 1024 10 16 0.00 0.00
11:52 pm 23:52 Partly Cloudy 78 25.6 73 22.8 85 85 S 5 7 30.25 1024 10 16 0.00 0.00

Powered by Vaisala Xweather